This demonstration page uses our WeatherBlox Daily Observations layout. Learn more.

Left ArrowRight Arrow

39.29038, -76.61219

Hourly Observations for February 26, 2021

Temp ( °F °C ) Dew Point ( °F °C ) Humidity (%) Winds ( mph kmh ) Pressure ( in mb ) Visibility ( mi km ) Precip ( " mm )
12:54 am 00:54 Cloudy 35 1.7 22 -5.6 59 59 N N/A 30.31 1026 10 16 N/A
1:54 am 01:54 Cloudy 35 1.7 24 -4.4 64 64 W 3 6 30.32 1027 10 16 N/A
2:54 am 02:54 Cloudy 35 1.7 24 -4.4 64 64 N N/A 30.32 1027 10 16 N/A
3:54 am 03:54 Cloudy 35 1.7 25 -3.9 67 67 N N/A 30.33 1027 10 16 N/A
4:54 am 04:54 Cloudy 35 1.7 25 -3.9 67 67 W 5 7 30.37 1028 10 16 N/A
5:54 am 05:54 Cloudy 38 3.3 23 -5 55 55 WNW 3 6 30.39 1029 10 16 N/A
6:54 am 06:54 Mostly Cloudy 40 4.4 20 -6.7 45 45 N N/A 30.44 1031 10 16 N/A
7:54 am 07:54 Partly Cloudy 42 5.6 18 -7.8 38 38 N 7 11 30.46 1031 10 16 N/A
8:54 am 08:54 Partly Cloudy 45 7.2 16 -8.9 31 31 NE 8 13 30.47 1032 10 16 N/A
9:54 am 09:54 Mostly Cloudy 45 7.2 15 -9.4 30 30 ENE 10 17 30.47 1032 10 16 N/A
10:54 am 10:54 Mostly Cloudy 45 7.2 15 -9.4 30 30 E 9 15 30.47 1032 10 16 N/A
11:54 am 11:54 Cloudy 47 8.3 14 -10 26 26 E 13 20 30.45 1031 10 16 N/A
12:54 pm 12:54 Cloudy 47 8.3 16 -8.9 29 29 ESE 10 17 30.41 1030 10 16 N/A
1:54 pm 13:54 Cloudy 48 8.9 16 -8.9 28 28 ESE 12 19 30.39 1029 10 16 N/A
2:54 pm 14:54 Mostly Cloudy 49 9.4 18 -7.8 29 29 SSE 8 13 30.40 1030 10 16 N/A
3:54 pm 15:54 Cloudy 48 8.9 19 -7.2 32 32 SSE 6 9 30.41 1030 10 16 N/A
4:54 pm 16:54 Cloudy 47 8.3 21 -6.1 36 36 SE 6 9 30.40 1030 10 16 N/A
5:54 pm 17:54 Cloudy 47 8.3 21 -6.1 36 36 SE 3 6 30.40 1030 10 16 N/A
6:54 pm 18:54 Cloudy 46 7.8 22 -5.6 38 38 SE 6 9 30.42 1030 10 16 N/A
7:54 pm 19:54 Cloudy with Light Rain 42 5.6 31 -0.6 65 65 S 8 13 30.43 1031 8 13 0.00 0.00
8:13 pm 20:13 Cloudy with Light Rain 40 4.4 32 undefined 73 73 SSE 8 13 30.44 1031 8 13 0.01 0.25
8:44 pm 20:44 Cloudy with Light Rain 39 3.9 33 0.6 79 79 SE 6 9 30.43 1030 8 13 0.01 0.25
8:54 pm 20:54 Cloudy with Light Rain 38 3.3 33 0.6 83 83 SE 6 9 30.42 1030 8 13 0.02 0.51
9:23 pm 21:23 Cloudy with Light Rain 38 3.3 34 1.1 86 86 SSE 6 9 30.42 1030 8 13 0.00 0.00
9:54 pm 21:54 Cloudy with Light Rain 38 3.3 34 1.1 86 86 SE 3 6 30.41 1030 7 11 0.02 0.51
10:24 pm 22:24 Cloudy with Light Rain 38 3.3 34 1.1 86 86 SE 7 11 30.41 1030 7 11 0.02 0.51
10:38 pm 22:38 Cloudy with Light Rain 37 2.8 34 1.1 89 89 SE 5 7 30.41 1030 6 10 0.03 0.76
10:54 pm 22:54 Cloudy with Light Rain 37 2.8 33 0.6 86 86 VRB 6 9 30.39 1029 6 10 0.04 1.02
11:54 pm 23:54 Cloudy with Light Rain 37 2.8 34 1.1 89 89 E 7 11 30.37 1028 5 8 0.04 1.02

Powered by AerisWeather